Location: Drayton Valley
(53.2170°N, 114.9830°W)
Time: 02:52:51
(UTC-07:00)

OTV 5 (USA 277) - Visible Passes

Search period start: 23 January 2018 00:00
Search period end: 02 February 2018 00:00
Orbit: 404 x 417 km, 43.0° (Epoch: 07 September)

Date Brightness Start Highest point End Pass type
(mag) Time Alt. Az. Time Alt. Az. Time Alt. Az.
26 Jan ? 19:40:42 10° SSW 19:41:49 13° S 19:41:49 13° S visible
27 Jan ? 18:50:06 10° SSW 18:51:40 13° SSE 18:53:12 10° SE visible
28 Jan ? 17:59:49 10° S 18:00:50 11° SSE 18:01:51 10° SE visible
28 Jan ? 19:35:18 10° SW 19:37:17 15° S 19:37:19 15° S visible
29 Jan ? 18:44:27 10° SSW 18:46:25 15° S 18:48:24 10° SE visible
30 Jan ? 17:53:42 10° SSW 17:55:33 14° S 17:57:24 10° SE visible
30 Jan ? 19:30:21 10° SW 19:32:02 13° S 19:32:55 12° S visible
31 Jan ? 18:39:16 10° SW 18:41:11 14° S 18:43:05 10° SSE visible
